Time,TemperatureF,DewpointF,PressureIn,WindDirection,WindDirectionDegrees,WindSpeedMPH,WindSpeedGustMPH,Humidity,HourlyPrecipIn,Conditions,Clouds,dailyrainin,SolarRadiationWatts/m^2,SoftwareType,DateUTC
2013-10-13 00:12:00,51.0,25.0,-100.00,South,169,9.0,14.0,36,0.00,,,0.00,233.000000,,2013-10-13 00:12:00,
2013-10-13 00:22:00,51.0,25.0,-100.00,South,169,9.0,14.0,36,0.00,,,0.00,233.000000,,2013-10-13 00:22:00,
2013-10-13 00:32:00,51.0,25.0,-100.00,South,169,9.0,14.0,36,0.00,,,0.00,233.000000,,2013-10-13 00:32:00,
2013-10-13 01:12:00,42.0,26.0,-100.00,ESE,108,2.0,13.0,53,0.00,,,0.00,57.000000,,2013-10-13 01:12:00,
2013-10-13 01:22:00,42.0,26.0,-100.00,ESE,108,2.0,13.0,53,0.00,,,0.00,57.000000,,2013-10-13 01:22:00,
2013-10-13 01:32:00,42.0,26.0,-100.00,ESE,108,2.0,13.0,53,0.00,,,0.00,57.000000,,2013-10-13 01:32:00,
2013-10-13 04:02:00,-999.0,-99.9,-100.00,ESE,113,3.0,6.0,-999,-99.99,,,-99.99,0.000000,,2013-10-13 04:02:00,
2013-10-13 05:12:00,31.0,24.0,-100.00,SSW,199,3.0,9.0,74,-99.99,,,0.00,0.000000,,2013-10-13 05:12:00,
2013-10-13 05:23:00,31.0,24.0,-100.00,SSW,199,3.0,9.0,74,-99.99,,,0.00,0.000000,,2013-10-13 05:23:00,
2013-10-13 05:34:00,31.0,24.0,-100.00,SSW,199,3.0,9.0,74,-99.99,,,0.00,0.000000,,2013-10-13 05:34:00,
2013-10-13 06:12:00,29.0,22.0,-100.00,North,0,3.0,7.0,74,0.00,,,0.00,0.000000,,2013-10-13 06:12:00,
2013-10-13 06:22:00,29.0,22.0,-100.00,North,0,3.0,7.0,74,0.00,,,0.00,0.000000,,2013-10-13 06:22:00,
2013-10-13 06:32:00,29.0,22.0,-100.00,North,0,3.0,7.0,74,0.00,,,0.00,0.000000,,2013-10-13 06:32:00,
2013-10-13 08:12:00,27.0,23.0,-100.00,North,354,5.0,8.0,83,0.00,,,0.00,0.000000,,2013-10-13 08:12:00,
2013-10-13 08:22:00,27.0,23.0,-100.00,North,354,5.0,8.0,83,0.00,,,0.00,0.000000,,2013-10-13 08:22:00,
2013-10-13 08:32:00,27.0,23.0,-100.00,North,354,5.0,8.0,83,0.00,,,0.00,0.000000,,2013-10-13 08:32:00,
2013-10-13 09:11:00,30.0,25.0,-100.00,North,1,3.0,7.0,81,0.00,,,0.00,0.000000,,2013-10-13 09:11:00,
2013-10-13 09:22:00,30.0,25.0,-100.00,North,1,3.0,7.0,81,0.00,,,0.00,0.000000,,2013-10-13 09:22:00,
2013-10-13 09:33:00,30.0,25.0,-100.00,North,1,3.0,7.0,81,0.00,,,0.00,0.000000,,2013-10-13 09:33:00,
2013-10-13 10:13:00,38.0,27.0,-100.00,SE,143,9.0,15.0,64,0.00,,,0.00,0.000000,,2013-10-13 10:13:00,
2013-10-13 10:23:00,38.0,27.0,-100.00,SE,143,9.0,15.0,64,0.00,,,0.00,0.000000,,2013-10-13 10:23:00,
2013-10-13 10:33:00,38.0,27.0,-100.00,SE,143,9.0,15.0,64,0.00,,,0.00,0.000000,,2013-10-13 10:33:00,
2013-10-13 11:12:00,36.0,27.0,-100.00,SSE,162,4.0,13.0,70,0.00,,,0.00,0.000000,,2013-10-13 11:12:00,
2013-10-13 11:22:00,36.0,27.0,-100.00,SSE,162,4.0,13.0,70,0.00,,,0.00,0.000000,,2013-10-13 11:22:00,
2013-10-13 11:33:00,36.0,27.0,-100.00,SSE,162,4.0,13.0,70,0.00,,,0.00,0.000000,,2013-10-13 11:33:00,
2013-10-13 12:12:00,36.0,29.0,-100.00,SSE,152,6.0,10.0,74,0.00,,,0.00,0.000000,,2013-10-13 12:12:00,
2013-10-13 12:21:00,36.0,29.0,-100.00,SSE,152,6.0,10.0,74,0.00,,,0.00,0.000000,,2013-10-13 12:21:00,
2013-10-13 12:32:00,36.0,29.0,-100.00,SSE,152,6.0,10.0,74,0.00,,,0.00,0.000000,,2013-10-13 12:32:00,
2013-10-13 13:12:00,33.0,27.0,-100.00,SSE,154,2.0,8.0,79,0.00,,,0.00,0.000000,,2013-10-13 13:12:00,
2013-10-13 13:22:00,33.0,27.0,-100.00,SSE,154,2.0,8.0,79,0.00,,,0.00,0.000000,,2013-10-13 13:22:00,
2013-10-13 13:32:00,33.0,27.0,-100.00,SSE,154,2.0,8.0,79,0.00,,,0.00,0.000000,,2013-10-13 13:32:00,
2013-10-13 14:11:00,34.0,30.0,-100.00,North,5,3.0,4.0,85,0.00,,,0.00,7.000000,,2013-10-13 14:11:00,
2013-10-13 14:22:00,34.0,30.0,-100.00,North,5,3.0,4.0,85,0.00,,,0.00,7.000000,,2013-10-13 14:22:00,
2013-10-13 14:32:00,34.0,30.0,-100.00,North,5,3.0,4.0,85,0.00,,,0.00,7.000000,,2013-10-13 14:32:00,
2013-10-13 15:12:00,42.0,33.0,-100.00,South,175,5.0,8.0,70,0.00,,,0.00,83.000000,,2013-10-13 15:12:00,
2013-10-13 15:22:00,42.0,33.0,-100.00,South,175,5.0,8.0,70,0.00,,,0.00,83.000000,,2013-10-13 15:22:00,
2013-10-13 15:33:00,42.0,33.0,-100.00,South,175,5.0,8.0,70,0.00,,,0.00,83.000000,,2013-10-13 15:33:00,
2013-10-13 16:12:00,46.0,32.0,-100.00,SE,140,9.0,15.0,59,0.00,,,0.00,178.000000,,2013-10-13 16:12:00,
2013-10-13 16:24:00,46.0,32.0,-100.00,SE,140,9.0,15.0,59,0.00,,,0.00,178.000000,,2013-10-13 16:24:00,
2013-10-13 16:33:00,46.0,32.0,-100.00,SE,140,9.0,15.0,59,0.00,,,0.00,178.000000,,2013-10-13 16:33:00,
2013-10-13 17:13:00,49.0,33.0,-100.00,SSE,156,13.0,22.0,53,0.00,,,0.00,316.000000,,2013-10-13 17:13:00,
2013-10-13 17:22:00,49.0,33.0,-100.00,SSE,156,13.0,22.0,53,0.00,,,0.00,316.000000,,2013-10-13 17:22:00,
2013-10-13 17:34:00,49.0,33.0,-100.00,SSE,156,13.0,22.0,53,0.00,,,0.00,316.000000,,2013-10-13 17:34:00,
2013-10-13 18:12:00,53.0,33.0,-100.00,South,174,13.0,21.0,47,0.00,,,0.00,698.000000,,2013-10-13 18:12:00,
2013-10-13 18:22:00,53.0,33.0,-100.00,South,174,13.0,21.0,47,0.00,,,0.00,698.000000,,2013-10-13 18:22:00,
2013-10-13 18:32:00,53.0,33.0,-100.00,South,174,13.0,21.0,47,0.00,,,0.00,698.000000,,2013-10-13 18:32:00,
2013-10-13 19:11:00,55.0,33.0,-100.00,South,190,16.0,28.0,43,0.00,,,0.00,805.000000,,2013-10-13 19:11:00,
2013-10-13 19:22:00,55.0,33.0,-100.00,South,190,16.0,28.0,43,0.00,,,0.00,805.000000,,2013-10-13 19:22:00,
2013-10-13 19:32:00,55.0,33.0,-100.00,South,190,16.0,28.0,43,0.00,,,0.00,805.000000,,2013-10-13 19:32:00,
2013-10-13 20:12:00,58.0,30.0,-100.00,South,176,14.0,25.0,34,0.00,,,0.00,822.000000,,2013-10-13 20:12:00,
2013-10-13 20:22:00,58.0,30.0,-100.00,South,176,14.0,25.0,34,0.00,,,0.00,822.000000,,2013-10-13 20:22:00,
2013-10-13 20:32:00,58.0,30.0,-100.00,South,176,14.0,25.0,34,0.00,,,0.00,822.000000,,2013-10-13 20:32:00,
2013-10-13 21:11:00,60.0,28.0,-100.00,South,189,15.0,23.0,29,0.00,,,0.00,754.000000,,2013-10-13 21:11:00,
2013-10-13 21:21:00,60.0,28.0,-100.00,South,189,15.0,23.0,29,0.00,,,0.00,754.000000,,2013-10-13 21:21:00,
2013-10-13 21:34:00,60.0,28.0,-100.00,South,189,15.0,23.0,29,0.00,,,0.00,754.000000,,2013-10-13 21:34:00,
2013-10-13 22:13:00,57.0,27.0,-100.00,South,181,11.0,24.0,31,0.00,,,0.00,487.000000,,2013-10-13 22:13:00,
2013-10-13 22:24:00,57.0,27.0,-100.00,South,181,11.0,24.0,31,0.00,,,0.00,487.000000,,2013-10-13 22:24:00,
2013-10-13 22:32:00,57.0,27.0,-100.00,South,181,11.0,24.0,31,0.00,,,0.00,487.000000,,2013-10-13 22:32:00,
2013-10-13 23:12:00,57.0,27.0,-100.00,South,180,12.0,23.0,32,0.00,,,0.00,123.000000,,2013-10-13 23:12:00,
2013-10-13 23:22:00,57.0,27.0,-100.00,South,180,12.0,23.0,32,0.00,,,0.00,123.000000,,2013-10-13 23:22:00,
2013-10-13 23:33:00,57.0,27.0,-100.00,South,180,12.0,23.0,32,0.00,,,0.00,123.000000,,2013-10-13 23:33:00,